User: anonymous   Login
Location: Unspecified
(0.0000°N, 0.0000°E)
Time: 19:28:43
(UTC+00:00)
Language:

STARLINK-30791 - Orbit

View from above orbital plane
View from above orbital plane
View from above satellite
View from above satellite

Ground track
Ground track

The orbit is defined by the following mean orbital elements,

1 58177U          26145.49124625 +.00000000 +00000-0 +38792-4 0 00005
2 58177  43.0020  69.4238 0001009 282.2800  77.7939 15.27578926    07
Epoch (UTC): 25 May 2026 11:47:23
Eccentricity: 0.0001009
inclination: 43.0020°
perigee height: 482 km
apogee height: 484 km
right ascension of ascending node: 69.4238°
argument of perigee: 282.2800°
revolutions per day: 15.27578926
mean anomaly at epoch: 77.7939°

The dashed part of the orbit path shows where the satellite is in the earth's shadow,  

DLR